Date,TemperatureHighF,TemperatureAvgF,TemperatureLowF,DewpointHighF,DewpointAvgF,DewpointLowF,HumidityHigh,HumidityAvg,HumidityLow,PressureMaxIn,PressureMinIn,WindSpeedMaxMPH,WindSpeedAvgMPH,GustSpeedMaxMPH,PrecipitationSumIn
2013-2-1,31.8,24.4,18.0,25.9,15.0,10.7,82,68,55,30.28,29.97,39,3,39,0.00
2013-2-2,40.5,31.2,22.6,32.1,24.7,15.0,85,77,69,30.15,29.90,28,3,28,0.00
2013-2-3,43.7,35.3,28.0,36.2,28.2,22.1,87,76,61,30.01,29.83,35,4,35,0.00
2013-2-4,53.4,37.4,25.9,34.5,27.0,20.6,84,68,45,29.98,29.76,26,4,26,0.00
2013-2-5,59.4,49.1,43.2,42.9,36.6,31.5,75,62,50,29.90,29.77,27,4,27,0.00
2013-2-6,58.3,45.2,34.2,38.1,29.7,23.9,78,57,35,30.05,29.92,14,2,14,0.00
2013-2-7,60.4,49.5,42.4,44.3,37.5,29.3,84,64,47,29.96,29.77,27,3,27,0.00
2013-2-8,46.9,41.0,34.7,43.2,35.6,27.9,88,81,75,30.13,29.72,9,3,9,0.00
2013-2-9,55.6,42.3,28.6,32.4,27.6,22.9,80,58,40,30.17,30.01,8,2,8,0.00
2013-2-10,57.7,51.1,46.6,49.7,38.5,28.4,86,64,44,30.02,29.76,20,7,20,1.29
2013-2-11,55.2,46.8,40.8,52.3,31.0,27.4,90,55,43,30.01,29.80,31,2,31,0.00
2013-2-12,54.1,44.7,36.9,37.1,31.1,28.3,76,60,42,30.01,29.68,25,2,25,0.00
2013-2-13,43.9,39.6,37.2,38.1,35.1,31.9,89,84,77,29.86,29.55,29,2,29,0.00
2013-2-14,37.8,36.6,34.3,32.8,31.5,29.3,83,82,81,29.86,29.85,4,0,4,0.00
2013-2-15,47.1,39.9,30.9,38.6,31.1,20.2,79,70,62,29.98,29.87,7,2,7,0.00
2013-2-16,37.2,29.4,24.4,21.9,17.0,10.6,76,60,48,30.01,29.92,27,8,27,0.00
2013-2-17,43.9,31.6,19.0,19.7,15.8,10.4,71,53,37,30.11,30.01,30,7,30,0.00
2013-2-18,60.4,52.1,32.4,36.5,31.3,18.5,72,46,37,30.06,29.74,29,9,29,0.14
2013-2-19,49.8,42.2,30.6,37.8,28.2,16.5,83,60,35,30.04,29.73,24,4,24,0.00
2013-2-20,37.0,29.4,22.3,18.6,15.8,13.1,68,57,46,30.14,30.02,35,2,35,0.00
2013-2-21,54.9,38.9,24.6,40.6,24.0,14.8,84,58,26,30.06,29.74,31,2,31,0.04
2013-2-22,58.8,51.0,45.7,49.5,44.2,40.2,83,78,68,29.89,29.73,29,6,29,0.00
2013-2-23,56.5,46.5,36.0,42.1,37.1,26.4,84,71,53,29.86,29.73,26,2,26,0.00
2013-2-24,52.9,40.3,29.1,29.3,25.3,22.1,78,57,38,29.96,29.82,28,4,28,0.00
2013-2-25,65.5,49.1,34.3,43.4,30.7,21.6,68,50,33,29.88,29.47,29,3,29,0.00
2013-2-26,53.4,48.3,40.3,46.6,40.9,33.3,82,76,64,29.56,29.30,32,7,32,0.00
2013-2-27,42.1,38.9,36.3,33.3,31.9,28.5,81,76,67,29.73,29.56,33,5,33,0.00
2013-2-28,37.2,35.1,31.6,29.3,27.4,25.5,81,73,67,29.87,29.68,29,3,29,0.00